Location: D?uga
(50.2667°N, 19.7833°E)
Time: 23:27:45
(UTC+00:00)

Cosmos 1315 Rocket - Pass Details

Date: 23 May 2024
Orbit: 515 x 542 km, 81.2° (Epoch: 22 June)

Event Time Altitude Azimuth Distance (km) Brightness Sun altitude
Exits shadow 00:04:51 27° 160° (SSE) 1,033 3.8 -16.5°
Maximum altitude 00:06:41 51° 97° (E) 667 3.3 -16.4°
Drops below altitude 10° 00:10:30 10° 21° (NNE) 1,789 6.8 -16.2°
Sets 00:12:42 0° 17° (NNE) 2,689 8.1 -16.0°
